PLEIADES NEO 4

Last updated on Wed Sep 17 2025 00:02:31 GMT+0000 (Coordinated Universal Time)

1 49070U 21073E 25259.64534505 -.00000004 00000+0 61658-5 0 9993 2 49070 97.8948 333.3320 0001311 99.9287 260.2074 14.81673498220864
UTC large
Height (km)
Speed (km/s)
/
Latitude / Longitude
Inclination (degrees)
Orbital Period (minutes)
Azimuth
Elevation
Range (km)
Doppler Factor

Next 0 passes for location: London (51.5072 / 0.1276)

Sorry there are no passes over London.